CW7453 Weather Reports


time (UTC)temp
C
wind
direction
speed
KPH
gust
KPH
rain 1hr
cm
rain 24hr
cm
rain mn
cm
humidity
%
barometer
mb
20260504081558 11 0 0.0 0.0 0.00 0.00 0.00 41 1017.5
20260504044557 12 142 3.2 8.0 0.00 0.00 0.00 38 1018.2
20260504043100 12 14 1.6 8.0 0.00 0.00 0.00 38 1018.2
20260504041557 12 141 3.2 6.4 0.00 0.00 0.00 37 1018.1
20260504040131 12 98 0.0 4.8 0.00 0.00 0.00 33 1018.1
20260504034602 12 103 0.0 4.8 0.00 0.00 0.00 33 1018.1
20260504033059 12 99 1.6 4.8 0.00 0.00 0.00 33 1018.2
20260504031614 12 155 0.0 4.8 0.00 0.00 0.00 34 1018.2
20260504030057 11 11 0.0 4.8 0.00 0.00 0.00 35 1018.1
20260504024605 11 0 0.0 1.6 0.00 0.00 0.00 37 1018.0
20260504023100 11 0 0.0 1.6 0.00 0.00 0.00 38 1017.9
20260504021558 11 30 0.0 1.6 0.00 0.00 0.00 39 1017.7
20260504020110 11 0 0.0 0.0 0.00 0.00 0.00 39 1017.7
20260504014603 10 0 0.0 1.6 0.00 0.00 0.00 40 1017.4
20260504013058 10 30 0.0 1.6 0.00 0.00 0.00 40 1017.4
20260504011556 10 30 0.0 1.6 0.00 0.00 0.00 41 1017.3
20260504010057 10 30 0.0 1.6 0.00 0.00 0.00 42 1017.1
20260504004555 10 30 0.0 1.6 0.00 0.00 0.00 43 1017.2
20260504003057 10 0 0.0 1.6 0.00 0.00 0.00 44 1017.1
20260504001556 10 0 0.0 0.0 0.00 0.00 0.00 43 1017.0
20260504000101 11 0 0.0 0.0 0.00 0.00 0.00 44 1017.0
20260503234624 11 0 0.0 0.0 0.00 0.00 0.00 44 1016.9
20260503233055 12 0 0.0 0.0 0.00 0.00 0.00 43 1016.9
20260503231557 12 0 0.0 3.2 0.00 0.00 0.00 40 1016.7
20260503230058 13 65 0.0 3.2 0.00 0.00 0.00 38 1016.6
20260503224557 13 84 0.0 3.2 0.00 0.00 0.00 32 1016.6
20260503223059 14 101 0.0 3.2 0.00 0.00 0.00 34 1016.7
20260503221610 15 38 3.2 8.0 0.00 0.00 0.00 31 1016.7
20260503220056 15 51 0.0 4.8 0.00 0.00 0.00 30 1016.7
20260503214601 15 271 1.6 9.7 0.00 0.00 0.00 31 1016.7
20260503213055 15 93 1.6 8.0 0.00 0.00 0.00 30 1016.8
20260503211559 15 65 1.6 11.3 0.00 0.00 0.00 30 1017.0
20260503210100 15 75 1.6 8.0 0.00 0.00 0.00 30 1016.8
20260503204606 15 71 1.6 14.5 0.00 0.00 0.00 30 1016.8
20260503203102 15 65 1.6 11.3 0.00 0.00 0.00 30 1017.0
20260503201558 15 237 1.6 8.0 0.00 0.00 0.00 31 1016.9
20260503200058 15 99 4.8 12.9 0.00 0.00 0.00 31 1017.1
20260503194600 15 142 1.6 16.1 0.00 0.00 0.00 31 1017.5
20260503193059 15 72 4.8 16.1 0.00 0.00 0.00 30 1017.6
20260503191556 15 141 3.2 14.5 0.00 0.00 0.00 32 1017.9
20260503190056 15 58 3.2 8.0 0.00 0.00 0.00 32 1018.0
20260503184557 15 58 1.6 9.7 0.00 0.00 0.00 34 1018.1
20260503183057 15 126 3.2 9.7 0.00 0.00 0.00 35 1018.1
20260503181558 14 104 4.8 22.5 0.00 0.00 0.00 32 1018.1
20260503180105 15 122 3.2 14.5 0.00 0.00 0.00 35 1018.4
20260503174600 14 131 3.2 9.7 0.00 0.00 0.00 35 1018.4
20260503173109 14 58 3.2 11.3 0.00 0.00 0.00 36 1018.6
20260503171555 13 71 3.2 12.9 0.00 0.00 0.00 37 1018.6